Location: Betpouey
(42.8833°N, 0.0333°E)
Time: 21:38:39
(UTC+00:00)

deb Agena D - Visible Passes

Search period start: 24 June 2021 00:00
Search period end: 04 July 2021 00:00
Orbit: 1017 x 1028 km, 100.1° (Epoch: 24 June)

Date Brightness Start Highest point End Pass type
(mag) Time Alt. Az. Time Alt. Az. Time Alt. Az.
24 Jun ? 02:22:29 10° ESE 02:27:41 28° ENE 02:32:55 10° N visible
25 Jun ? 02:59:52 10° SE 03:05:57 51° ENE 03:12:04 10° N visible
26 Jun ? 01:57:05 10° E 02:01:10 18° NE 02:05:16 10° NNE visible
26 Jun ? 03:38:06 10° SSE 03:44:27 85° WSW 03:50:50 10° NNW visible
27 Jun ? 02:33:45 10° ESE 02:39:16 33° ENE 02:44:49 10° N visible
28 Jun ? 01:32:45 10° ENE 01:34:46 12° NE 01:36:48 10° NNE visible
28 Jun ? 03:11:24 10° SSE 03:17:36 62° ENE 03:23:50 10° N visible
29 Jun ? 02:08:06 10° ESE 02:12:42 22° ENE 02:17:19 10° N visible
30 Jun ? 02:45:05 10° SE 02:50:53 40° ENE 02:56:41 10° N visible
01 Jul ? 01:43:11 10° E 01:46:15 14° NE 01:49:20 10° NNE visible
01 Jul ? 03:22:59 10° SSE 03:29:17 74° ENE 03:35:36 10° NNW visible
02 Jul ? 02:19:13 10° ESE 02:24:16 26° ENE 02:29:18 10° N visible
03 Jul ? 02:56:30 10° SE 03:02:30 47° ENE 03:08:31 10° N visible
